Le nostre stazioni meteo in Italia

Pubblicità
Il mio iltempo24.it
Kinbrace, Gran Bretagna (99016): Temperatura & dewpoint: 10.02.2019 06:00:00 - 16.02.2019 06:00:00 (GMT)Kinbrace, Gran Bretagna (99016): velocità del vento & gusts: 10.02.2019 06:00:00 - 16.02.2019 06:00:00 (GMT)Kinbrace, Gran Bretagna (99016): direzione del vento: 10.02.2019 06:00:00 - 16.02.2019 06:00:00 (GMT)Kinbrace, Gran Bretagna (99016): precipitazioni: 10.02.2019 06:00:00 - 16.02.2019 06:00:00 (GMT)
Data & Tempo tt [°C] td [°C] ff [km/h] ff [kn] fx [km/h] fx [kn] dd rr [mm]
16.02.2019 06:00:00 6,4 4,7 5 3 - - S -
16.02.2019 05:00:00 4,9 3,9 4 2 - - ESE 0,0
16.02.2019 04:00:00 5,0 4,2 5 3 - - S 0,0
16.02.2019 03:00:00 5,5 4,3 11 6 - - SO 0,0
16.02.2019 02:00:00 5,6 4,1 8 4 - - SSO 0,0
16.02.2019 01:00:00 8,1 6,6 4 2 - - S 0,6
16.02.2019 00:00:00 8,5 7,4 13 7 - - SSE 2,8
15.02.2019 23:00:00 8,5 7,2 11 6 - - S 1,8
15.02.2019 22:00:00 10,1 6,6 18 10 - - ESE 0,0
15.02.2019 21:00:00 9,8 5,9 15 8 - - ESE 0,0
15.02.2019 20:00:00 9,5 5,5 5 3 - - ESE 0,0
15.02.2019 19:00:00 10,0 5,1 11 6 - - S 0,0
15.02.2019 18:00:00 10,4 4,7 18 10 - - S 0,0
15.02.2019 17:00:00 11,9 4,7 15 8 - - SSO 0,0
15.02.2019 16:00:00 11,9 3,8 5 3 - - SSO 0,0
15.02.2019 15:00:00 12,2 3,8 16 9 - - S 0,0
15.02.2019 14:00:00 12,7 4,4 16 9 - - S 0,0
15.02.2019 13:00:00 12,6 2,6 21 11 - - ESE 0,0
15.02.2019 12:00:00 11,3 -0,1 24 13 52 28 SE 0,0
15.02.2019 11:00:00 10,9 -2,4 41 22 57 31 SE 0,0
15.02.2019 10:00:00 10,0 -2,9 28 15 - - SE 0,0
15.02.2019 09:00:00 8,9 -1,4 22 12 - - SE 0,0
15.02.2019 08:00:00 8,5 0,4 22 12 - - SE 0,0
15.02.2019 07:00:00 9,2 0,0 16 9 - - SE 0,0
15.02.2019 06:00:00 9,2 -0,1 22 12 - - SE 0,0
15.02.2019 05:00:00 8,9 0,3 21 11 - - ESE 0,0
15.02.2019 04:00:00 9,4 -0,4 16 9 - - ESE 0,0
15.02.2019 03:00:00 7,4 1,2 18 10 - - E 0,0
15.02.2019 02:00:00 8,9 1,1 16 9 - - ESE 0,0
15.02.2019 01:00:00 7,7 0,9 4 2 - - ENE 0,0
15.02.2019 00:00:00 8,8 2,4 13 7 - - SE 0,0
14.02.2019 23:00:00 8,4 3,3 13 7 - - ESE 0,0
14.02.2019 22:00:00 9,2 3,9 16 9 - - SE 0,0
14.02.2019 21:00:00 9,6 4,0 11 6 - - SSE 0,0
14.02.2019 20:00:00 10,1 4,5 16 9 - - SE 0,0
14.02.2019 19:00:00 8,4 5,2 8 4 - - SSE 0,0
14.02.2019 18:00:00 10,7 6,5 24 13 - - S 0,0
14.02.2019 17:00:00 10,6 7,1 24 13 - - SSE 0,0
14.02.2019 16:00:00 10,7 7,5 21 11 - - SSE 0,0
14.02.2019 15:00:00 10,9 7,6 15 8 - - SSE 0,0
14.02.2019 14:00:00 11,4 8,1 21 11 - - S 0,0
14.02.2019 13:00:00 10,5 7,9 21 11 - - S 0,0
14.02.2019 12:00:00 10,7 8,2 18 10 - - S 0,0
14.02.2019 11:00:00 11,2 9,1 18 10 - - S 0,0
14.02.2019 10:00:00 9,6 8,0 15 8 - - S 0,2
14.02.2019 09:00:00 9,1 7,9 15 8 - - S 0,2
14.02.2019 08:00:00 9,0 8,0 13 7 - - S 0,4
14.02.2019 07:00:00 9,2 8,2 13 7 - - S 0,2
14.02.2019 06:00:00 9,2 8,3 13 7 - - S 0,4
14.02.2019 05:00:00 9,6 8,0 16 9 - - S 0,2
14.02.2019 04:00:00 9,6 7,2 24 13 - - SSE 0,0
14.02.2019 03:00:00 10,4 7,1 28 15 - - S 0,0
14.02.2019 02:00:00 9,8 7,1 29 16 48 26 S 0,0
14.02.2019 01:00:00 9,1 6,6 34 18 46 25 S 0,0
14.02.2019 00:00:00 9,6 6,5 29 16 - - S 0,0
13.02.2019 23:00:00 9,8 6,5 34 18 52 28 S 0,0
13.02.2019 22:00:00 9,6 6,6 29 16 48 26 S 0,0
13.02.2019 21:00:00 10,0 6,6 37 20 52 28 S 0,0
13.02.2019 20:00:00 9,8 6,4 34 18 52 28 S 0,0
13.02.2019 19:00:00 9,9 6,6 34 18 52 28 SSE 0,0
13.02.2019 18:00:00 9,9 6,6 28 15 - - SSE 0,0
13.02.2019 17:00:00 10,0 6,7 26 14 - - S 0,0
13.02.2019 16:00:00 10,5 7,1 24 13 - - S 0,0
13.02.2019 15:00:00 10,5 7,3 24 13 - - S 0,0
13.02.2019 14:00:00 11,2 7,4 21 11 - - S 0,0
13.02.2019 13:00:00 11,1 7,8 22 12 - - SSE 0,0
13.02.2019 12:00:00 11,1 7,2 28 15 - - S -
13.02.2019 11:00:00 10,6 7,5 21 11 - - S 0,0
13.02.2019 10:00:00 9,9 6,6 15 8 - - SE 0,0
13.02.2019 09:00:00 9,2 6,2 18 10 - - SSE 0,0
13.02.2019 08:00:00 8,5 5,5 18 10 - - SSE 0,0
13.02.2019 07:00:00 8,1 4,5 21 11 - - SSE 0,0
13.02.2019 06:00:00 8,6 3,9 22 12 - - SE 0,0
13.02.2019 05:00:00 8,2 2,0 22 12 - - SE 0,0
13.02.2019 04:00:00 6,4 2,3 18 10 - - ESE 0,0
13.02.2019 03:00:00 6,3 2,6 21 11 - - SSE 0,0
13.02.2019 02:00:00 5,7 2,2 16 9 - - SE 0,0
13.02.2019 01:00:00 6,4 3,0 13 7 - - SE 0,0
13.02.2019 00:00:00 5,8 2,1 9 5 - - NNO 0,0
12.02.2019 23:00:00 5,8 1,7 13 7 - - NO 0,0
12.02.2019 22:00:00 6,3 1,3 5 3 - - NNE 0,0
12.02.2019 21:00:00 8,0 2,2 24 13 - - O 0,0
12.02.2019 20:00:00 8,2 2,6 24 13 - - O 0,0
12.02.2019 19:00:00 8,9 4,6 31 17 59 32 O 0,0
12.02.2019 18:00:00 8,8 4,3 22 12 57 31 O 0,0
12.02.2019 17:00:00 9,3 3,8 34 18 63 34 O 0,0
12.02.2019 16:00:00 10,6 5,8 29 16 57 31 O 0,0
12.02.2019 15:00:00 11,6 6,5 22 12 - - O 0,0
12.02.2019 14:00:00 12,6 7,9 22 12 - - O 0,0
12.02.2019 13:00:00 10,4 8,0 11 6 - - SSO 0,0
12.02.2019 12:00:00 11,0 7,0 29 16 - - SO 0,0
12.02.2019 11:00:00 10,5 6,7 21 11 - - SSO 0,0
12.02.2019 10:00:00 9,7 6,4 21 11 - - SSO 0,0
12.02.2019 09:00:00 8,8 5,8 18 10 - - S 0,0
12.02.2019 08:00:00 8,4 5,5 16 9 - - SSE 0,0
12.02.2019 07:00:00 7,9 5,2 21 11 - - S 0,0
12.02.2019 06:00:00 7,4 4,4 18 10 - - SSE 0,0
12.02.2019 05:00:00 7,1 3,8 22 12 - - SE 0,0
12.02.2019 04:00:00 6,7 3,6 16 9 - - SSE 0,0
12.02.2019 03:00:00 7,0 3,7 21 11 - - SE 0,0
12.02.2019 02:00:00 6,5 3,8 26 14 - - SE 0,0
12.02.2019 01:00:00 6,5 3,8 18 10 - - SSE 0,0
12.02.2019 00:00:00 5,4 2,3 9 5 - - S 0,0
11.02.2019 23:00:00 4,9 1,7 24 13 - - SSE 0,0
11.02.2019 22:00:00 4,2 1,0 24 13 - - SE 0,0
11.02.2019 21:00:00 3,6 0,8 21 11 - - SSE 0,0
11.02.2019 20:00:00 3,6 0,5 16 9 - - SE 0,0
11.02.2019 19:00:00 3,3 -0,3 18 10 - - SE 0,0
11.02.2019 18:00:00 2,8 -0,5 13 7 - - SE 0,0
11.02.2019 17:00:00 2,5 0,4 8 4 - - SSO 0,0
11.02.2019 16:00:00 3,4 1,0 5 3 - - S 0,0
11.02.2019 15:00:00 4,3 0,5 4 2 - - OSO 0,0
11.02.2019 14:00:00 4,9 1,1 9 5 - - SO 0,0
11.02.2019 13:00:00 4,3 0,5 5 3 - - SO 0,0
11.02.2019 12:00:00 3,5 0,5 5 3 - - SE 0,2
11.02.2019 11:00:00 1,8 0,5 4 2 - - SE 0,0
11.02.2019 10:00:00 -0,3 -0,7 5 3 - - SE 0,0
11.02.2019 09:00:00 -1,9 -2,4 4 2 - - S 0,0
11.02.2019 08:00:00 -1,9 -2,4 4 2 - - ESE 0,0
11.02.2019 07:00:00 -2,3 -3,2 4 2 - - SO 0,0
11.02.2019 06:00:00 -0,7 -1,4 4 2 - - SSE 0,0
11.02.2019 05:00:00 0,1 -0,5 5 3 - - SSE 0,0
11.02.2019 04:00:00 0,8 0,1 11 6 - - N 0,0
11.02.2019 03:00:00 1,0 0,0 9 5 - - NE 0,0
11.02.2019 02:00:00 -0,1 -0,7 5 3 - - NNO 0,0
11.02.2019 01:00:00 1,0 0,4 8 4 - - N 0,2
11.02.2019 00:00:00 0,7 0,0 9 5 - - NNO 0,4
10.02.2019 23:00:00 1,1 0,5 18 10 - - NNE 0,8
10.02.2019 22:00:00 1,7 0,8 15 8 - - N 1,2
10.02.2019 21:00:00 2,1 1,4 13 7 - - N 1,4
10.02.2019 20:00:00 2,6 1,8 15 8 - - N 1,0
10.02.2019 19:00:00 3,0 1,9 22 12 - - NNE 0,6
10.02.2019 18:00:00 3,8 3,2 8 4 - - N 0,4
10.02.2019 17:00:00 3,6 2,8 9 5 - - NNO 0,2
10.02.2019 16:00:00 4,1 2,8 21 11 - - NO 0,2
10.02.2019 15:00:00 3,8 2,5 15 8 - - NO 0,4
10.02.2019 14:00:00 4,2 2,4 18 10 - - NO 0,0
10.02.2019 13:00:00 5,2 1,2 9 5 - - NNO 0,0
10.02.2019 12:00:00 5,2 1,3 11 6 - - O 0,0
10.02.2019 11:00:00 4,5 0,3 13 7 - - O 0,0
10.02.2019 10:00:00 1,4 -0,3 5 3 - - SSE 0,0
10.02.2019 09:00:00 0,9 -0,7 11 6 - - SO 0,0
10.02.2019 08:00:00 0,2 -1,4 5 3 - - SSE 0,0
10.02.2019 07:00:00 0,1 -2,9 8 4 - - SSO 0,0
10.02.2019 06:00:00 0,6 -1,5 16 9 - - O 0,0

tt = Temperatura
td = dewpoint
ff = velocità del vento
fx = gusts
dd = direzione del vento
rr = precipitazioni

Stazioni seguenti

WeatherPro
AMSI
MeteoEarth